Wind_Speed
24 23 18 19 20 21 21 26 26 26 18 24 22 23 20 24 20 22 14 11 12 11 13 9 9 8 8 9 9 10 11 11 11 9 8 9 8 7 7 7 7 8 12 11
30 25 23 22 21 23 26 24 24 25 23 15 18 22 24 22 19 20 20 10 16 12 10 9 9 9 8 10 13 13 14 14 15 12 11 10 10 8 8 7 7 7 10 10
32 31 30 29 27 25 26 27 23 23 27 23 21 22 29 26 23 23 19 20 17 16 10 9 8 9 8 10 13 16 17 17 17 15 12 12 12 10 9 9 8 7 9 9
36 34 34 34 33 31 29 27 26 25 30 32 29 30 30 32 30 23 22 24 22 20 12 11 10 10 7 11 11 18 19 19 19 19 15 15 15 15 11 8 8 8 7 8
37 39 40 38 37 37 34 34 32 33 33 34 37 38 35 33 32 26 31 37 31 23 18 10 12 11 10 8 8 16 22 19 20 20 19 17 16 15 13 10 9 11 8 6
36 41 43 43 42 41 42 40 38 37 39 43 32 40 36 35 27 30 33 25 38 23 20 18 16 12 12 8 5 8 18 21 20 21 22 19 18 17 15 12 10 9 8 7
36 34 34 39 46 47 46 44 45 43 43 38 33 42 36 33 31 25 26 30 20 23 22 21 16 12 10 11 12 10 13 21 20 20 23 23 20 19 17 15 11 10 9 7
37 38 32 28 36 39 46 49 47 48 44 39 38 41 30 29 30 31 30 29 26 22 28 26 19 16 14 11 14 14 14 19 22 21 23 24 23 21 21 19 16 13 11 9
36 38 37 39 40 45 42 47 45 49 49 50 46 35 34 30 29 34 31 33 30 28 23 30 28 23 20 14 13 16 18 17 22 24 25 25 25 23 22 21 19 17 14 13
42 42 34 35 37 42 38 43 44 46 49 54 52 45 38 19 12 24 37 35 32 29 33 36 38 28 27 21 19 16 17 18 20 26 25 26 25 24 24 23 21 20 18 16
38 41 33 34 37 36 32 33 41 45 48 50 51 53 40 20 16 21 32 36 39 36 36 40 33 30 36 27 24 20 15 18 18 20 26 26 27 26 24 22 22 22 20 18
39 38 40 40 44 46 46 44 34 43 47 50 53 61 27 22 28 25 14 24 29 36 39 44 43 43 48 32 27 19 15 15 20 25 25 29 30 30 27 24 23 22 22 21
43 46 45 41 45 47 50 50 42 36 49 53 51 59 35 25 19 23 30 38 30 38 49 51 49 34 39 36 31 24 16 15 17 21 27 30 32 29 27 28 27 25 23 22
32 34 46 52 44 55 53 56 51 43 46 54 49 47 40 32 21 19 33 37 38 33 40 49 47 42 56 28 27 32 23 20 17 18 23 27 31 31 30 29 29 28 25 22
30 38 43 45 56 47 63 58 60 56 50 47 53 37 49 47 38 31 37 46 43 36 31 35 30 34 44 37 27 35 31 25 20 14 15 21 29 34 35 31 29 30 27 25
32 34 41 47 47 51 50 64 65 66 58 51 49 49 57 63 49 45 41 46 42 42 47 42 45 36 56 30 29 28 30 29 25 18 14 20 25 31 34 34 31 30 29 28
30 27 33 32 33 41 60 56 62 67 65 57 55 60 51 69 61 52 53 50 48 49 45 39 35 50 49 38 41 41 44 36 29 23 16 15 21 27 31 34 33 30 29 31
23 18 25 29 27 27 39 63 60 66 68 64 60 67 76 73 66 60 57 53 55 59 62 61 49 51 41 49 47 41 41 45 30 25 18 16 15 21 29 32 32 32 30 30
21 22 22 23 29 26 26 47 59 63 69 69 71 72 70 78 72 50 66 63 66 60 59 59 53 45 42 41 45 50 37 51 31 25 16 15 16 19 24 29 32 32 32 30
20 21 22 21 21 27 23 31 55 61 67 67 72 69 66 77 78 69 56 68 65 69 65 64 59 56 53 47 47 38 31 19 24 21 18 18 17 17 20 26 31 33 32 32
16 14 18 21 24 25 30 34 36 55 67 64 70 69 67 68 81 81 67 69 53 68 70 68 64 55 55 57 55 48 37 42 28 23 24 24 20 17 20 23 30 32 30 31
16 11 14 14 18 26 31 38 40 40 54 63 67 69 66 68 73 77 80 71 71 51 61 63 58 54 56 56 58 58 47 34 31 30 30 28 23 20 21 23 26 30 30 29
18 18 12 15 15 22 27 37 40 44 43 46 62 74 75 72 70 76 76 84 80 63 47 45 53 48 46 52 53 53 49 40 37 35 34 33 29 24 24 24 27 28 29 28
17 16 17 17 16 20 24 29 39 46 48 50 56 64 73 75 75 75 78 78 85 78 68 51 60 55 48 50 52 51 51 47 42 40 38 36 32 27 25 24 28 29 29 28
22 19 15 15 19 23 21 20 28 33 37 43 58 59 69 72 71 78 80 79 87 83 73 68 52 53 52 52 52 51 50 49 46 43 42 41 38 31 28 27 27 28 30 31
21 23 23 20 17 16 22 20 20 27 26 29 28 41 68 69 68 70 80 79 81 84 84 75 79 50 51 50 53 52 48 48 48 46 45 47 42 38 33 31 30 28 32 33
Wind_Direction
227 229 229 227 227 225 230 224 216 202 213 246 236 249 262 269 272 282 177 208 198 199 208 202 172 206 211 196 184 194 206 202 194 193 185 154 157 146 124 114 115 132 113 97
229 229 227 225 223 220 226 232 230 220 207 249 241 262 261 264 274 277 277 216 197 193 198 194 159 204 212 219 195 192 203 200 201 194 197 174 169 161 153 160 145 138 114 107
231 229 227 226 225 225 228 231 231 224 210 202 220 245 262 268 266 273 240 235 208 177 203 194 170 188 207 222 209 196 206 196 205 196 194 185 178 177 180 172 153 143 121 115
232 233 232 230 227 227 224 232 223 227 230 221 198 222 245 262 269 255 257 216 226 187 184 202 158 139 193 222 216 204 207 201 202 200 196 193 190 183 187 183 163 147 138 118
229 228 234 233 231 229 228 230 223 224 227 237 212 218 225 235 248 262 254 225 217 202 174 206 193 177 173 209 218 211 210 205 204 203 200 197 197 193 181 186 175 156 142 140
235 235 230 229 233 233 231 230 232 229 231 232 230 233 242 241 246 249 257 250 225 218 191 191 219 195 166 180 183 208 216 211 207 204 204 204 200 199 187 187 181 169 158 158
227 225 231 237 232 232 236 235 234 235 237 245 239 230 247 251 256 258 262 259 246 244 232 210 217 225 200 193 202 201 210 214 206 211 206 208 207 205 196 193 191 184 184 177
234 228 222 229 235 239 241 237 236 238 239 245 244 245 248 247 248 259 264 263 246 217 220 243 202 225 222 218 215 208 205 211 204 204 211 208 210 207 207 198 191 199 197 197
230 225 225 223 219 228 232 235 238 242 240 239 240 240 232 239 232 240 250 262 259 257 251 210 216 209 220 218 212 215 219 209 207 206 211 210 209 210 212 208 203 201 207 203
237 234 229 228 229 234 237 234 233 234 239 238 239 238 236 227 247 243 243 246 250 250 254 257 226 210 212 222 217 217 226 226 215 212 208 213 209 211 209 211 209 211 208 216
249 245 225 230 238 236 229 231 219 227 230 239 242 237 233 206 246 223 233 263 265 259 258 258 265 233 224 215 223 209 222 234 228 222 216 213 214 210 215 213 216 217 215 217
260 253 248 231 226 238 240 236 228 227 225 232 236 236 221 203 227 262 210 260 264 262 258 257 255 229 215 201 224 215 213 232 236 226 226 217 216 214 211 215 218 222 219 217
262 256 249 240 231 228 235 237 224 215 218 225 235 237 195 207 209 219 199 219 228 244 248 254 257 238 205 202 213 220 205 218 234 230 222 223 219 220 216 216 216 222 225 224
283 274 259 245 229 221 216 229 223 212 219 222 219 228 201 203 188 212 209 214 227 230 240 249 256 256 223 185 215 209 203 206 227 233 222 222 222 219 218 218 218 217 222 230
296 279 268 255 237 231 226 221 227 226 216 221 218 210 206 205 209 183 202 212 217 221 229 240 245 249 244 223 238 220 200 200 207 228 229 224 222 222 220 218 221 219 220 223
286 285 272 262 248 228 222 222 223 230 232 228 221 204 206 206 205 199 190 204 213 215 210 217 224 233 235 230 200 215 226 205 206 212 234 230 226 225 224 222 222 224 225 228
285 287 273 256 255 241 219 214 218 228 230 225 222 214 218 208 202 211 196 198 200 205 210 208 229 234 235 231 231 233 224 212 200 211 221 238 233 229 224 224 225 224 224 228
282 286 281 258 252 252 221 212 211 219 225 221 213 212 224 213 200 209 214 200 201 201 206 213 214 237 239 232 222 227 212 213 200 206 213 237 242 232 225 222 223 226 227 229
293 280 270 274 254 237 219 217 213 215 216 212 212 211 212 220 204 206 214 209 206 206 207 214 217 227 239 236 235 237 235 215 200 193 208 232 239 230 226 222 221 223 225 227
289 275 263 275 276 245 228 218 220 218 217 217 216 217 215 220 218 215 212 211 224 219 219 224 227 231 233 237 240 229 226 238 207 204 207 223 235 231 225 223 220 223 224 226
311 284 271 277 262 238 235 228 208 219 219 217 218 222 221 223 226 227 219 213 196 215 218 227 232 227 221 221 231 242 220 215 217 208 218 224 230 235 232 229 224 223 224 228
328 299 271 277 262 242 235 238 232 218 222 222 222 224 226 224 226 232 230 219 217 222 219 217 224 229 221 218 221 227 231 221 208 216 216 220 226 235 240 234 230 222 224 227
327 320 306 267 261 254 240 237 237 230 221 225 223 226 226 223 223 228 232 230 229 218 210 217 222 215 225 221 224 228 228 226 212 212 224 217 215 228 242 239 233 226 224 227
346 321 300 298 279 257 252 245 241 239 233 231 230 225 228 227 222 223 228 229 230 226 223 212 214 225 225 223 224 224 224 223 218 212 216 225 221 227 238 241 235 229 225 225
14 359 336 315 285 274 267 261 249 244 244 238 234 234 231 230 224 222 224 227 227 227 229 226 216 213 218 219 222 221 220 221 220 214 217 218 220 229 235 237 238 229 227 225
6 11 8 352 333 302 265 266 272 252 257 246 246 240 233 232 227 220 222 222 226 225 228 233 227 216 214 216 220 219 220 221 222 215 216 222 218 224 230 237 237 233 227 227
Height
5839 5843 5847 5850 5853 5857 5859 5861 5863 5868 5875 5877 5879 5877 5881 5882 5886 5881 5886 5899 5898 5898 5902 5903 5906 5909 5913 5915 5918 5922 5925 5929 5932 5934 5936 5938 5939 5941 5942 5945 5947 5947 5948 5948
5834 5839 5842 5845 5848 5851 5853 5857 5861 5865 5869 5875 5876 5877 5879 5883 5884 5886 5890 5896 5899 5898 5902 5902 5906 5908 5912 5914 5918 5921 5923 5928 5932 5934 5937 5939 5941 5943 5944 5947 5949 5950 5950 5952
5827 5833 5835 5839 5843 5846 5849 5852 5857 5861 5863 5864 5873 5873 5874 5881 5885 5886 5889 5893 5895 5896 5899 5901 5903 5907 5910 5912 5916 5919 5922 5926 5931 5934 5938 5940 5943 5945 5946 5948 5949 5951 5951 5953
5820 5825 5828 5832 5836 5840 5844 5847 5851 5855 5857 5859 5866 5867 5871 5877 5882 5885 5884 5888 5896 5895 5896 5901 5902 5905 5908 5910 5914 5918 5920 5925 5929 5934 5936 5940 5943 5945 5947 5949 5950 5952 5953 5954
5812 5815 5819 5824 5830 5833 5838 5840 5844 5847 5850 5853 5857 5859 5866 5872 5875 5879 5878 5884 5890 5892 5892 5900 5901 5902 5906 5908 5911 5916 5919 5923 5928 5932 5935 5939 5942 5944 5947 5950 5952 5954 5955 5956
5804 5806 5811 5816 5820 5825 5829 5833 5836 5840 5842 5841 5855 5854 5862 5865 5874 5877 5877 5883 5887 5894 5892 5895 5900 5901 5904 5907 5909 5913 5918 5922 5926 5930 5934 5938 5941 5944 5946 5949 5951 5954 5955 5957
5790 5796 5803 5808 5812 5816 5821 5826 5829 5832 5835 5842 5850 5849 5856 5865 5868 5871 5875 5878 5885 5886 5891 5893 5896 5902 5904 5906 5907 5910 5915 5919 5924 5928 5932 5936 5939 5943 5946 5948 5951 5954 5956 5957
5782 5790 5793 5798 5803 5809 5813 5816 5821 5824 5832 5840 5841 5838 5854 5863 5862 5861 5868 5871 5876 5881 5887 5890 5891 5896 5900 5905 5907 5908 5912 5916 5920 5924 5928 5932 5937 5941 5943 5947 5950 5952 5955 5957
5773 5778 5780 5786 5786 5792 5803 5804 5818 5816 5822 5826 5829 5834 5847 5854 5863 5861 5863 5862 5868 5871 5874 5879 5885 5888 5892 5900 5905 5906 5909 5913 5916 5921 5924 5929 5933 5938 5941 5944 5948 5951 5953 5956
5765 5773 5777 5779 5782 5786 5790 5803 5804 5806 5810 5814 5820 5828 5840 5849 5855 5859 5860 5860 5864 5866 5868 5870 5870 5883 5886 5893 5898 5902 5905 5909 5912 5916 5922 5926 5930 5934 5938 5942 5945 5948 5952 5954
5757 5762 5774 5775 5777 5781 5782 5787 5791 5797 5800 5803 5811 5819 5835 5842 5843 5845 5855 5857 5858 5861 5863 5864 5862 5876 5885 5886 5893 5896 5900 5905 5909 5913 5917 5922 5927 5932 5936 5939 5942 5946 5949 5952
5747 5755 5759 5766 5770 5770 5772 5776 5781 5788 5794 5794 5799 5807 5835 5835 5839 5840 5847 5851 5851 5854 5857 5858 5866 5871 5875 5874 5888 5894 5896 5900 5904 5907 5911 5917 5921 5926 5931 5935 5939 5942 5945 5948
5739 5740 5743 5754 5764 5766 5762 5767 5769 5776 5781 5785 5793 5802 5829 5825 5829 5829 5833 5832 5839 5845 5847 5849 5851 5861 5870 5867 5878 5889 5891 5895 5899 5902 5906 5910 5916 5922 5928 5931 5934 5938 5941 5944
5725 5728 5729 5736 5746 5746 5746 5753 5756 5763 5771 5777 5782 5793 5810 5815 5817 5820 5825 5828 5825 5834 5837 5837 5840 5839 5835 5855 5870 5877 5880 5888 5895 5898 5901 5905 5910 5916 5921 5924 5928 5932 5936 5939
5713 5713 5713 5717 5724 5727 5735 5741 5744 5747 5758 5763 5777 5786 5794 5799 5805 5809 5815 5817 5817 5823 5823 5825 5832 5833 5832 5851 5866 5872 5870 5878 5888 5893 5897 5900 5903 5908 5913 5919 5923 5927 5931 5935
5702 5701 5697 5697 5702 5708 5716 5727 5732 5735 5749 5756 5765 5776 5773 5777 5788 5795 5802 5808 5809 5813 5813 5819 5820 5830 5836 5849 5856 5866 5873 5872 5880 5888 5891 5894 5898 5901 5908 5913 5918 5922 5926 5930
5691 5688 5683 5683 5684 5685 5692 5712 5721 5728 5736 5744 5752 5761 5754 5758 5772 5779 5789 5793 5800 5803 5804 5809 5818 5821 5829 5844 5854 5859 5862 5866 5869 5880 5884 5889 5893 5897 5902 5907 5911 5917 5921 5923
5681 5677 5675 5675 5674 5674 5689 5693 5701 5711 5719 5725 5732 5734 5737 5741 5757 5768 5772 5783 5783 5791 5797 5798 5804 5809 5823 5830 5838 5848 5855 5857 5860 5870 5876 5882 5887 5891 5895 5900 5905 5910 5914 5918
5673 5670 5669 5665 5666 5672 5674 5679 5689 5685 5706 5703 5707 5712 5734 5737 5752 5754 5762 5772 5768 5781 5789 5796 5800 5808 5812 5818 5830 5837 5824 5831 5853 5862 5870 5876 5879 5883 5888 5893 5898 5902 5906 5911
5667 5664 5662 5662 5662 5666 5668 5671 5673 5681 5689 5692 5699 5711 5724 5727 5733 5739 5747 5753 5768 5775 5779 5785 5793 5802 5809 5810 5816 5832 5838 5847 5858 5857 5862 5870 5874 5877 5882 5886 5890 5894 5899 5903
5662 5659 5657 5655 5656 5658 5656 5658 5661 5668 5672 5681 5691 5703 5711 5717 5722 5728 5737 5748 5755 5759 5767 5778 5786 5794 5804 5807 5811 5815 5834 5843 5845 5846 5856 5864 5868 5871 5875 5879 5882 5887 5892 5895
5658 5656 5654 5652 5650 5650 5652 5653 5654 5659 5665 5675 5683 5690 5698 5703 5709 5713 5723 5735 5739 5750 5761 5768 5777 5786 5795 5799 5806 5814 5819 5829 5835 5842 5848 5857 5862 5865 5869 5874 5877 5880 5884 5888
5654 5653 5650 5648 5647 5642 5645 5646 5650 5655 5658 5662 5667 5673 5679 5686 5697 5700 5709 5719 5727 5740 5746 5760 5769 5778 5786 5790 5797 5805 5812 5821 5829 5837 5844 5849 5853 5859 5863 5867 5870 5873 5877 5881
5651 5648 5645 5643 5641 5640 5639 5640 5641 5643 5647 5651 5652 5657 5661 5671 5682 5687 5694 5706 5715 5725 5734 5744 5753 5765 5774 5781 5788 5796 5802 5810 5819 5826 5834 5841 5847 5852 5857 5860 5863 5866 5870 5875
5651 5647 5642 5637 5634 5632 5630 5630 5630 5631 5632 5637 5640 5641 5646 5652 5666 5674 5681 5689 5701 5714 5722 5734 5742 5749 5761 5769 5778 5787 5793 5801 5811 5818 5826 5830 5837 5844 5848 5852 5855 5858 5862 5866
5649 5646 5641 5634 5630 5625 5622 5621 5621 5621 5622 5624 5625 5627 5629 5634 5647 5659 5667 5678 5687 5704 5712 5720 5731 5738 5748 5756 5765 5775 5782 5790 5800 5808 5816 5821 5827 5832 5838 5843 5848 5851 5854 5858